TimeHST,TemperatureF,Dew PointF,Humidity,Sea Level PressureIn,VisibilityMPH,Wind Direction,Wind SpeedMPH,Gust SpeedMPH,PrecipitationIn,Events,Conditions,WindDirDegrees,DateUTC
12:53 AM,73.9,62.1,66,29.94,10.0,Calm,Calm,-,N/A,,Scattered Clouds,0,2013-01-29 10:53:00
1:53 AM,73.0,61.0,66,29.93,10.0,Calm,Calm,-,N/A,,Mostly Cloudy,0,2013-01-29 11:53:00
2:53 AM,73.9,60.1,62,29.92,10.0,NNE,8.1,-,N/A,,Mostly Cloudy,20,2013-01-29 12:53:00
3:53 AM,73.9,63.0,68,29.91,10.0,North,8.1,-,0.00,Rain,Light Rain,10,2013-01-29 13:53:00
4:53 AM,73.9,64.9,73,29.92,10.0,North,8.1,-,0.00,,Overcast,360,2013-01-29 14:53:00
5:53 AM,69.1,66.0,90,29.95,4.0,West,9.2,-,0.27,Rain,Heavy Rain,270,2013-01-29 15:53:00
6:53 AM,69.1,64.9,87,29.96,6.0,West,4.6,-,0.18,Rain,Heavy Rain,280,2013-01-29 16:53:00
7:53 AM,69.1,66.0,90,29.99,10.0,Calm,Calm,-,0.05,,Overcast,0,2013-01-29 17:53:00
8:53 AM,71.1,66.9,87,29.99,10.0,North,8.1,-,0.01,,Scattered Clouds,360,2013-01-29 18:53:00
9:53 AM,73.0,68.0,84,29.99,10.0,North,9.2,-,N/A,,Mostly Cloudy,360,2013-01-29 19:53:00
10:53 AM,75.9,68.0,76,29.99,10.0,North,10.4,-,N/A,,Mostly Cloudy,350,2013-01-29 20:53:00
11:53 AM,78.1,66.9,68,29.97,10.0,NNW,11.5,-,N/A,,Scattered Clouds,340,2013-01-29 21:53:00
12:53 PM,79.0,66.0,64,29.95,10.0,NNW,10.4,-,N/A,,Scattered Clouds,330,2013-01-29 22:53:00
1:53 PM,77.0,64.9,66,29.93,10.0,NW,8.1,-,N/A,,Overcast,320,2013-01-29 23:53:00
2:28 PM,78.8,66.2,65,29.92,10.0,NW,4.6,-,N/A,,Overcast,310,2013-01-30 00:28:00
2:53 PM,77.0,66.0,69,29.92,10.0,NNW,9.2,-,N/A,,Overcast,330,2013-01-30 00:53:00
3:33 PM,75.2,66.2,73,29.93,8.0,Variable,3.5,-,0.01,Rain,Rain,0,2013-01-30 01:33:00
3:53 PM,73.9,66.9,79,29.93,10.0,NNE,8.1,-,0.02,,Overcast,30,2013-01-30 01:53:00
4:53 PM,75.0,68.0,79,29.94,10.0,NNE,6.9,-,N/A,,Overcast,20,2013-01-30 02:53:00
5:53 PM,73.9,68.0,82,29.95,10.0,North,6.9,-,N/A,,Overcast,350,2013-01-30 03:53:00
6:53 PM,73.0,68.0,84,29.97,10.0,North,9.2,-,N/A,,Overcast,360,2013-01-30 04:53:00
7:53 PM,73.0,66.9,81,29.99,10.0,North,6.9,-,N/A,,Overcast,10,2013-01-30 05:53:00
8:24 PM,73.4,66.2,78,29.99,10.0,North,6.9,-,N/A,,Overcast,350,2013-01-30 06:24:00
8:46 PM,73.4,66.2,78,30.00,10.0,NNE,6.9,-,0.00,Rain,Light Rain,20,2013-01-30 06:46:00
8:53 PM,72.0,66.0,81,30.01,10.0,North,6.9,-,0.00,Rain,Light Rain,10,2013-01-30 06:53:00
9:53 PM,71.1,66.0,84,30.02,10.0,NE,5.8,-,0.01,Rain,Light Rain,50,2013-01-30 07:53:00
10:00 PM,71.6,66.2,83,30.01,5.0,NNE,10.4,-,0.06,Rain,Heavy Rain,30,2013-01-30 08:00:00
10:28 PM,71.6,66.2,83,30.02,10.0,NNW,5.8,-,0.08,Rain,Light Rain,330,2013-01-30 08:28:00
10:35 PM,71.6,68.0,88,30.03,10.0,NNW,6.9,-,0.08,Rain,Light Rain,340,2013-01-30 08:35:00
10:53 PM,70.0,66.9,90,30.03,7.0,NW,5.8,-,0.14,Rain,Heavy Rain,320,2013-01-30 08:53:00
11:02 PM,69.8,66.2,88,30.03,8.0,NNW,8.1,-,0.02,Rain,Rain,330,2013-01-30 09:02:00
11:38 PM,69.8,66.2,88,30.02,10.0,North,8.1,-,0.09,Rain,Light Rain,10,2013-01-30 09:38:00
11:53 PM,69.1,66.9,93,30.02,10.0,North,9.2,-,0.09,,Overcast,360,2013-01-30 09:53:00